GPS BIIRM-1 (PRN 17)

Last updated on Jan. 16, 2020, 4:33 a.m. UTC

1 28874U 05038A   20014.04722694 -.00000057  00000-0  00000-0 0  9999
2 28874  56.3947   6.2300 0136708 264.6851  95.8074  2.00568726104782
UTC
Height (km)
Latitude
Longitude
Inclination
Orbital Period
UTC large
Height (km)
Speed (km/s)
/
Latitude / Longitude
Inclination (degrees)
Orbital Period (minutes)
Azimuth
Elevation
Range (km)
Doppler Factor
iOS Compass Heading
iOS Angle

Next 30 passes for location: Hong Kong

Rise time Rise Azimuth (degrees) Set time Set Azimuth (degrees) Duration Max altitude (degrees)

No matching passes for this satellites